| time (UTC) | temp C | wind direction | speed KPH | gust KPH | rain 1hr cm | rain 24hr cm | rain mn cm | humidity % | barometer mb |
| 20260508053504 | 16 | 71 | 1.6 | 8.0 | 0.00 | 0.00 | 0.00 | 70 | 1017.0 |
| 20260508053004 | 16 | 73 | 1.6 | 6.4 | 0.00 | 0.00 | 0.00 | 70 | 1016.6 |
| 20260508052504 | 16 | 84 | 3.2 | 6.4 | 0.00 | 0.00 | 0.00 | 71 | 1016.7 |
| 20260508052004 | 16 | 144 | 1.6 | 6.4 | 0.00 | 0.00 | 0.00 | 71 | 1016.6 |
| 20260508051504 | 16 | 136 | 1.6 | 6.4 | 0.00 | 0.00 | 0.00 | 71 | 1016.7 |
| 20260508051005 | 15 | 102 | 1.6 | 6.4 | 0.00 | 0.00 | 0.00 | 72 | 1016.6 |
| 20260508050004 | 15 | 354 | 3.2 | 8.0 | 0.00 | 0.00 | 0.00 | 73 | 1016.5 |
| 20260508045504 | 15 | 17 | 1.6 | 6.4 | 0.00 | 0.00 | 0.00 | 74 | 1016.5 |
| 20260508044504 | 15 | 238 | 1.6 | 8.0 | 0.00 | 0.00 | 0.00 | 74 | 1016.6 |
| 20260508043005 | 15 | 203 | 0.0 | 8.0 | 0.00 | 0.00 | 0.00 | 76 | 1016.4 |
| 20260508042504 | 15 | 235 | 0.0 | 6.4 | 0.00 | 0.00 | 0.00 | 76 | 1016.2 |
| 20260508042004 | 15 | 229 | 1.6 | 6.4 | 0.00 | 0.00 | 0.00 | 76 | 1016.1 |
| 20260508041505 | 15 | 207 | 0.0 | 6.4 | 0.00 | 0.00 | 0.00 | 76 | 1016.3 |
| 20260508040504 | 15 | 206 | 0.0 | 6.4 | 0.00 | 0.00 | 0.00 | 76 | 1016.1 |
| 20260508040004 | 15 | 230 | 0.0 | 4.8 | 0.00 | 0.00 | 0.00 | 75 | 1016.1 |
| 20260508035505 | 15 | 222 | 0.0 | 4.8 | 0.00 | 0.00 | 0.00 | 75 | 1016.0 |
| 20260508035005 | 15 | 239 | 0.0 | 3.2 | 0.00 | 0.00 | 0.00 | 75 | 1015.8 |
| 20260508034504 | 15 | 223 | 1.6 | 8.0 | 0.00 | 0.00 | 0.00 | 75 | 1015.8 |
| 20260508033504 | 15 | 226 | 1.6 | 9.7 | 0.00 | 0.00 | 0.00 | 75 | 1015.9 |
| 20260508033004 | 15 | 336 | 0.0 | 4.8 | 0.00 | 0.00 | 0.00 | 75 | 1016.1 |
| 20260508032503 | 15 | 17 | 0.0 | 4.8 | 0.00 | 0.00 | 0.00 | 75 | 1015.9 |
| 20260508032004 | 15 | 184 | 0.0 | 3.2 | 0.00 | 0.00 | 0.00 | 75 | 1016.0 |
| 20260508031505 | 15 | 200 | 0.0 | 3.2 | 0.00 | 0.00 | 0.00 | 75 | 1015.8 |
| 20260508031005 | 15 | 206 | 0.0 | 4.8 | 0.00 | 0.00 | 0.00 | 75 | 1015.8 |
| 20260508030005 | 15 | 21 | 1.6 | 6.4 | 0.00 | 0.00 | 0.00 | 75 | 1015.8 |
| 20260508025504 | 15 | 78 | 1.6 | 6.4 | 0.00 | 0.00 | 0.00 | 75 | 1015.6 |
| 20260508025004 | 15 | 87 | 1.6 | 6.4 | 0.00 | 0.00 | 0.00 | 75 | 1015.8 |
| 20260508024504 | 15 | 50 | 1.6 | 6.4 | 0.00 | 0.00 | 0.00 | 75 | 1016.0 |
| 20260508024004 | 15 | 225 | 1.6 | 6.4 | 0.00 | 0.00 | 0.00 | 75 | 1016.0 |
| 20260508023504 | 15 | 212 | 1.6 | 6.4 | 0.00 | 0.00 | 0.00 | 75 | 1016.0 |
| 20260508023004 | 15 | 204 | 1.6 | 6.4 | 0.00 | 0.00 | 0.00 | 74 | 1016.1 |
| 20260508022504 | 15 | 290 | 0.0 | 6.4 | 0.00 | 0.00 | 0.00 | 75 | 1016.1 |
| 20260508021005 | 15 | 28 | 0.0 | 6.4 | 0.00 | 0.00 | 0.00 | 75 | 1016.1 |
| 20260508020004 | 15 | 103 | 0.0 | 4.8 | 0.00 | 0.00 | 0.00 | 75 | 1016.1 |
| 20260508015504 | 15 | 0 | 0.0 | 0.0 | 0.00 | 0.00 | 0.00 | 74 | 1016.0 |
| 20260508015004 | 15 | 0 | 0.0 | 0.0 | 0.00 | 0.00 | 0.00 | 74 | 1016.1 |
| 20260508014504 | 15 | 0 | 0.0 | 0.0 | 0.00 | 0.00 | 0.00 | 74 | 1016.1 |
| 20260508014004 | 15 | 0 | 0.0 | 0.0 | 0.00 | 0.00 | 0.00 | 74 | 1016.2 |
| 20260508013005 | 15 | 23 | 0.0 | 3.2 | 0.00 | 0.00 | 0.00 | 73 | 1016.2 |
| 20260508012504 | 15 | 0 | 0.0 | 0.0 | 0.00 | 0.00 | 0.00 | 74 | 1016.1 |
| 20260508012004 | 15 | 0 | 0.0 | 0.0 | 0.00 | 0.00 | 0.00 | 74 | 1016.5 |
| 20260508011004 | 15 | 106 | 0.0 | 3.2 | 0.00 | 0.00 | 0.00 | 74 | 1016.5 |
| 20260508010504 | 15 | 90 | 0.0 | 3.2 | 0.00 | 0.00 | 0.00 | 74 | 1016.2 |
| 20260508010005 | 15 | 76 | 0.0 | 3.2 | 0.00 | 0.00 | 0.00 | 74 | 1016.4 |
| 20260508005504 | 15 | 129 | 0.0 | 3.2 | 0.00 | 0.00 | 0.00 | 75 | 1016.6 |
| 20260508005004 | 15 | 104 | 0.0 | 6.4 | 0.00 | 0.00 | 0.00 | 75 | 1016.6 |
| 20260508004505 | 15 | 112 | 1.6 | 6.4 | 0.00 | 0.00 | 0.00 | 75 | 1016.9 |
| 20260508004004 | 15 | 115 | 1.6 | 6.4 | 0.00 | 0.00 | 0.00 | 76 | 1016.8 |
| 20260508003006 | 15 | 93 | 1.6 | 4.8 | 0.00 | 0.00 | 0.00 | 76 | 1016.8 |
| 20260508002504 | 15 | 109 | 1.6 | 4.8 | 0.00 | 0.00 | 0.00 | 76 | 1016.9 |
| 20260508002004 | 15 | 113 | 1.6 | 4.8 | 0.00 | 0.00 | 0.00 | 76 | 1016.7 |
| 20260508001505 | 15 | 95 | 0.0 | 4.8 | 0.00 | 0.00 | 0.00 | 76 | 1016.6 |
| 20260508001004 | 15 | 90 | 0.0 | 3.2 | 0.00 | 0.00 | 0.00 | 76 | 1016.8 |
| 20260508000504 | 15 | 90 | 0.0 | 3.2 | 0.00 | 0.00 | 0.00 | 75 | 1016.9 |
| 20260508000005 | 15 | 0 | 0.0 | 0.0 | 0.00 | 0.00 | 0.00 | 75 | 1016.8 |
| 20260507235504 | 15 | 0 | 0.0 | 0.0 | 0.00 | 0.00 | 0.00 | 75 | 1016.8 |
| 20260507235004 | 15 | 7 | 0.0 | 3.2 | 0.00 | 0.00 | 0.00 | 75 | 1016.9 |
| 20260507234504 | 15 | 6 | 0.0 | 3.2 | 0.00 | 0.00 | 0.00 | 75 | 1017.2 |
| 20260507234004 | 15 | 1 | 0.0 | 3.2 | 0.00 | 0.00 | 0.00 | 75 | 1017.1 |
| 20260507233504 | 15 | 0 | 0.0 | 0.0 | 0.00 | 0.00 | 0.00 | 74 | 1017.3 |
| 20260507233005 | 15 | 0 | 0.0 | 0.0 | 0.00 | 0.00 | 0.00 | 74 | 1017.3 |
| 20260507232504 | 15 | 0 | 0.0 | 0.0 | 0.00 | 0.00 | 0.00 | 74 | 1017.4 |
| 20260507232004 | 15 | 0 | 0.0 | 0.0 | 0.00 | 0.00 | 0.00 | 74 | 1017.4 |
| 20260507231505 | 15 | 90 | 0.0 | 1.6 | 0.00 | 0.00 | 0.00 | 74 | 1017.2 |
| 20260507231004 | 15 | 25 | 0.0 | 4.8 | 0.00 | 0.00 | 0.00 | 73 | 1017.2 |
| 20260507230504 | 16 | 24 | 0.0 | 4.8 | 0.00 | 0.00 | 0.00 | 73 | 1017.2 |
| 20260507230005 | 16 | 135 | 0.0 | 1.6 | 0.00 | 0.00 | 0.00 | 73 | 1017.4 |
| 20260507225004 | 16 | 123 | 0.0 | 4.8 | 0.00 | 0.00 | 0.00 | 72 | 1017.4 |
| 20260507224004 | 16 | 89 | 1.6 | 6.4 | 0.00 | 0.00 | 0.00 | 71 | 1017.5 |
| 20260507223004 | 16 | 86 | 0.0 | 4.8 | 0.00 | 0.00 | 0.00 | 69 | 1017.5 |
| 20260507222504 | 16 | 121 | 1.6 | 4.8 | 0.00 | 0.00 | 0.00 | 69 | 1017.4 |
| 20260507221505 | 16 | 133 | 1.6 | 6.4 | 0.00 | 0.00 | 0.00 | 68 | 1017.5 |
| 20260507220505 | 16 | 28 | 1.6 | 6.4 | 0.00 | 0.00 | 0.00 | 67 | 1017.5 |
| 20260507220005 | 16 | 41 | 1.6 | 6.4 | 0.00 | 0.00 | 0.00 | 67 | 1017.7 |
| 20260507215504 | 16 | 30 | 1.6 | 6.4 | 0.00 | 0.00 | 0.00 | 67 | 1017.6 |
| 20260507214504 | 16 | 336 | 3.2 | 11.3 | 0.00 | 0.00 | 0.00 | 67 | 1017.8 |
| 20260507214004 | 16 | 327 | 3.2 | 12.9 | 0.00 | 0.00 | 0.00 | 68 | 1017.7 |
| 20260507213504 | 16 | 323 | 1.6 | 12.9 | 0.00 | 0.00 | 0.00 | 68 | 1017.7 |
| 20260507213005 | 16 | 317 | 1.6 | 8.0 | 0.00 | 0.00 | 0.00 | 69 | 1017.7 |
| 20260507212005 | 16 | 316 | 3.2 | 9.7 | 0.00 | 0.00 | 0.00 | 69 | 1017.7 |
| 20260507211004 | 16 | 306 | 0.0 | 4.8 | 0.00 | 0.00 | 0.00 | 69 | 1017.8 |
| 20260507210504 | 16 | 341 | 0.0 | 4.8 | 0.00 | 0.00 | 0.00 | 69 | 1017.7 |
| 20260507210006 | 16 | 346 | 0.0 | 4.8 | 0.00 | 0.00 | 0.00 | 69 | 1017.8 |
| 20260507205504 | 16 | 337 | 1.6 | 6.4 | 0.00 | 0.00 | 0.00 | 69 | 1017.9 |
| 20260507204505 | 16 | 315 | 0.0 | 3.2 | 0.00 | 0.00 | 0.00 | 70 | 1017.7 |
| 20260507204005 | 16 | 323 | 1.6 | 6.4 | 0.00 | 0.00 | 0.00 | 70 | 1017.4 |
| 20260507203005 | 17 | 340 | 0.0 | 3.2 | 0.00 | 0.00 | 0.00 | 69 | 1017.4 |
| 20260507202504 | 17 | 357 | 0.0 | 3.2 | 0.00 | 0.00 | 0.00 | 69 | 1017.4 |
| 20260507202004 | 17 | 332 | 0.0 | 4.8 | 0.00 | 0.00 | 0.00 | 69 | 1017.7 |
| 20260507201504 | 17 | 311 | 0.0 | 4.8 | 0.00 | 0.00 | 0.00 | 68 | 1017.7 |
| 20260507200504 | 17 | 329 | 0.0 | 4.8 | 0.00 | 0.00 | 0.00 | 67 | 1017.7 |
| 20260507195503 | 17 | 304 | 0.0 | 8.0 | 0.00 | 0.00 | 0.00 | 66 | 1017.7 |
| 20260507195004 | 17 | 313 | 0.0 | 8.0 | 0.00 | 0.00 | 0.00 | 66 | 1017.6 |
| 20260507194505 | 17 | 314 | 0.0 | 4.8 | 0.00 | 0.00 | 0.00 | 65 | 1017.7 |
| 20260507194004 | 17 | 355 | 0.0 | 4.8 | 0.00 | 0.00 | 0.00 | 64 | 1017.7 |
| 20260507193504 | 17 | 30 | 0.0 | 4.8 | 0.00 | 0.00 | 0.00 | 64 | 1017.8 |
| 20260507193005 | 17 | 12 | 0.0 | 6.4 | 0.00 | 0.00 | 0.00 | 63 | 1017.9 |
| 20260507192504 | 17 | 339 | 1.6 | 6.4 | 0.00 | 0.00 | 0.00 | 63 | 1017.6 |
| 20260507192003 | 17 | 327 | 1.6 | 6.4 | 0.00 | 0.00 | 0.00 | 62 | 1017.6 |
| 20260507191505 | 17 | 340 | 0.0 | 4.8 | 0.00 | 0.00 | 0.00 | 62 | 1017.6 |
| 20260507191004 | 17 | 356 | 1.6 | 6.4 | 0.00 | 0.00 | 0.00 | 62 | 1017.6 |
| 20260507190504 | 17 | 13 | 1.6 | 6.4 | 0.00 | 0.00 | 0.00 | 61 | 1017.6 |
| 20260507185505 | 17 | 60 | 1.6 | 6.4 | 0.00 | 0.00 | 0.00 | 60 | 1017.6 |
| 20260507185004 | 17 | 76 | 1.6 | 6.4 | 0.00 | 0.00 | 0.00 | 60 | 1017.6 |
| 20260507184504 | 17 | 51 | 1.6 | 6.4 | 0.00 | 0.00 | 0.00 | 59 | 1017.6 |
| 20260507184003 | 17 | 7 | 3.2 | 6.4 | 0.00 | 0.00 | 0.00 | 59 | 1017.6 |
| 20260507183503 | 17 | 354 | 3.2 | 8.0 | 0.00 | 0.00 | 0.00 | 60 | 1017.3 |
| 20260507183004 | 18 | 335 | 3.2 | 8.0 | 0.00 | 0.00 | 0.00 | 60 | 1017.3 |
| 20260507182504 | 18 | 284 | 1.6 | 6.4 | 0.00 | 0.00 | 0.00 | 61 | 1017.4 |
| 20260507182004 | 18 | 283 | 1.6 | 11.3 | 0.00 | 0.00 | 0.00 | 61 | 1017.3 |
| 20260507181505 | 18 | 299 | 3.2 | 11.3 | 0.00 | 0.00 | 0.00 | 61 | 1017.3 |
| 20260507181004 | 18 | 300 | 3.2 | 9.7 | 0.00 | 0.00 | 0.00 | 60 | 1017.1 |
| 20260507180504 | 18 | 303 | 3.2 | 9.7 | 0.00 | 0.00 | 0.00 | 59 | 1017.2 |
| 20260507180005 | 18 | 310 | 4.8 | 12.9 | 0.00 | 0.00 | 0.00 | 58 | 1017.0 |
| 20260507175504 | 18 | 314 | 4.8 | 12.9 | 0.00 | 0.00 | 0.00 | 58 | 1017.1 |
| 20260507175003 | 18 | 318 | 6.4 | 12.9 | 0.00 | 0.00 | 0.00 | 58 | 1017.1 |
| 20260507174505 | 18 | 316 | 4.8 | 12.9 | 0.00 | 0.00 | 0.00 | 58 | 1017.3 |
| 20260507174005 | 19 | 308 | 3.2 | 9.7 | 0.00 | 0.00 | 0.00 | 58 | 1017.1 |
| 20260507173505 | 19 | 299 | 1.6 | 9.7 | 0.00 | 0.00 | 0.00 | 58 | 1016.8 |
| 20260507173005 | 19 | 290 | 1.6 | 8.0 | 0.00 | 0.00 | 0.00 | 57 | 1017.0 |
| 20260507172504 | 19 | 302 | 1.6 | 9.7 | 0.00 | 0.00 | 0.00 | 58 | 1017.1 |
| 20260507172004 | 19 | 309 | 1.6 | 9.7 | 0.00 | 0.00 | 0.00 | 57 | 1017.1 |
| 20260507171504 | 19 | 297 | 0.0 | 6.4 | 0.00 | 0.00 | 0.00 | 56 | 1016.8 |
| 20260507171004 | 19 | 270 | 0.0 | 4.8 | 0.00 | 0.00 | 0.00 | 55 | 1016.9 |
| 20260507170504 | 19 | 270 | 0.0 | 4.8 | 0.00 | 0.00 | 0.00 | 55 | 1016.9 |
| 20260507165504 | 19 | 273 | 1.6 | 6.4 | 0.00 | 0.00 | 0.00 | 54 | 1016.4 |
| 20260507165004 | 19 | 325 | 0.0 | 4.8 | 0.00 | 0.00 | 0.00 | 54 | 1016.6 |
| 20260507164004 | 20 | 60 | 3.2 | 8.0 | 0.00 | 0.00 | 0.00 | 54 | 1016.5 |
| 20260507163504 | 20 | 48 | 4.8 | 11.3 | 0.00 | 0.00 | 0.00 | 54 | 1016.5 |
| 20260507163005 | 20 | 37 | 4.8 | 11.3 | 0.00 | 0.00 | 0.00 | 54 | 1016.3 |
| 20260507162504 | 20 | 17 | 3.2 | 11.3 | 0.00 | 0.00 | 0.00 | 54 | 1016.2 |
| 20260507162004 | 20 | 22 | 4.8 | 20.9 | 0.00 | 0.00 | 0.00 | 54 | 1016.7 |
| 20260507161504 | 20 | 28 | 4.8 | 20.9 | 0.00 | 0.00 | 0.00 | 53 | 1016.6 |
| 20260507161004 | 21 | 18 | 3.2 | 14.5 | 0.00 | 0.00 | 0.00 | 50 | 1016.6 |
| 20260507160504 | 21 | 290 | 1.6 | 8.0 | 0.00 | 0.00 | 0.00 | 48 | 1016.7 |
| 20260507160005 | 21 | 313 | 3.2 | 14.5 | 0.00 | 0.00 | 0.00 | 47 | 1016.8 |
| 20260507155504 | 22 | 340 | 4.8 | 14.5 | 0.00 | 0.00 | 0.00 | 46 | 1016.9 |
| 20260507155004 | 22 | 348 | 3.2 | 12.9 | 0.00 | 0.00 | 0.00 | 44 | 1016.6 |
| 20260507154504 | 23 | 339 | 1.6 | 12.9 | 0.00 | 0.00 | 0.00 | 43 | 1016.5 |
| 20260507154004 | 23 | 311 | 1.6 | 6.4 | 0.00 | 0.00 | 0.00 | 40 | 1016.6 |
| 20260507153504 | 23 | 300 | 1.6 | 6.4 | 0.00 | 0.00 | 0.00 | 39 | 1016.7 |
| 20260507151506 | 23 | 353 | 1.6 | 9.7 | 0.00 | 0.00 | 0.00 | 43 | 1016.9 |
| 20260507150504 | 23 | 323 | 4.8 | 12.9 | 0.00 | 0.00 | 0.00 | 44 | 1017.0 |
| 20260507150005 | 23 | 337 | 4.8 | 12.9 | 0.00 | 0.00 | 0.00 | 44 | 1017.1 |
| 20260507145503 | 23 | 353 | 4.8 | 12.9 | 0.00 | 0.00 | 0.00 | 44 | 1016.9 |
| 20260507145004 | 23 | 354 | 4.8 | 11.3 | 0.00 | 0.00 | 0.00 | 44 | 1017.0 |
| 20260507144505 | 23 | 18 | 4.8 | 9.7 | 0.00 | 0.00 | 0.00 | 45 | 1016.8 |
| 20260507144004 | 23 | 36 | 3.2 | 14.5 | 0.00 | 0.00 | 0.00 | 44 | 1016.7 |
| 20260507143504 | 23 | 42 | 4.8 | 14.5 | 0.00 | 0.00 | 0.00 | 44 | 1016.9 |
| 20260507143005 | 23 | 41 | 4.8 | 12.9 | 0.00 | 0.00 | 0.00 | 43 | 1016.8 |
| 20260507142504 | 24 | 31 | 4.8 | 12.9 | 0.00 | 0.00 | 0.00 | 43 | 1016.8 |
| 20260507142004 | 24 | 1 | 4.8 | 12.9 | 0.00 | 0.00 | 0.00 | 43 | 1016.7 |
| 20260507141504 | 25 | 347 | 6.4 | 14.5 | 0.00 | 0.00 | 0.00 | 43 | 1016.7 |
| 20260507140504 | 25 | 6 | 4.8 | 14.5 | 0.00 | 0.00 | 0.00 | 39 | 1016.4 |
| 20260507140006 | 25 | 356 | 3.2 | 14.5 | 0.00 | 0.00 | 0.00 | 41 | 1016.4 |
| 20260507135504 | 25 | 15 | 4.8 | 14.5 | 0.00 | 0.00 | 0.00 | 42 | 1016.4 |
| 20260507135005 | 25 | 353 | 8.0 | 14.5 | 0.00 | 0.00 | 0.00 | 40 | 1016.3 |
| 20260507134004 | 25 | 7 | 6.4 | 14.5 | 0.00 | 0.00 | 0.00 | 40 | 1016.2 |
| 20260507133503 | 25 | 22 | 6.4 | 19.3 | 0.00 | 0.00 | 0.00 | 39 | 1016.2 |
| 20260507133004 | 25 | 36 | 6.4 | 19.3 | 0.00 | 0.00 | 0.00 | 38 | 1016.2 |
| 20260507132503 | 25 | 37 | 4.8 | 11.3 | 0.00 | 0.00 | 0.00 | 38 | 1016.1 |
| 20260507132003 | 25 | 355 | 4.8 | 11.3 | 0.00 | 0.00 | 0.00 | 40 | 1016.2 |
| 20260507131504 | 25 | 345 | 3.2 | 14.5 | 0.00 | 0.00 | 0.00 | 41 | 1016.1 |
| 20260507131003 | 24 | 33 | 6.4 | 17.7 | 0.00 | 0.00 | 0.00 | 41 | 1016.0 |
| 20260507130503 | 24 | 39 | 8.0 | 17.7 | 0.00 | 0.00 | 0.00 | 39 | 1016.1 |
| 20260507130005 | 24 | 15 | 6.4 | 17.7 | 0.00 | 0.00 | 0.00 | 39 | 1016.3 |
| 20260507125503 | 24 | 16 | 8.0 | 20.9 | 0.00 | 0.00 | 0.00 | 39 | 1016.2 |
| 20260507125004 | 25 | 50 | 8.0 | 20.9 | 0.00 | 0.00 | 0.00 | 40 | 1016.3 |
| 20260507124504 | 25 | 55 | 9.7 | 20.9 | 0.00 | 0.00 | 0.00 | 40 | 1016.5 |
| 20260507124003 | 25 | 65 | 11.3 | 20.9 | 0.00 | 0.00 | 0.00 | 39 | 1016.7 |
| 20260507123004 | 25 | 42 | 8.0 | 20.9 | 0.00 | 0.00 | 0.00 | 40 | 1016.8 |
| 20260507122504 | 25 | 37 | 8.0 | 19.3 | 0.00 | 0.00 | 0.00 | 42 | 1017.0 |
| 20260507121504 | 25 | 35 | 9.7 | 22.5 | 0.00 | 0.00 | 0.00 | 41 | 1017.1 |
| 20260507121004 | 25 | 40 | 9.7 | 19.3 | 0.00 | 0.00 | 0.00 | 39 | 1017.1 |
| 20260507120503 | 25 | 25 | 11.3 | 20.9 | 0.00 | 0.00 | 0.00 | 38 | 1017.1 |
| 20260507120005 | 25 | 29 | 9.7 | 20.9 | 0.00 | 0.00 | 0.00 | 37 | 1017.0 |
| 20260507115503 | 26 | 33 | 9.7 | 22.5 | 0.00 | 0.00 | 0.00 | 36 | 1017.0 |
| 20260507115004 | 26 | 24 | 11.3 | 22.5 | 0.00 | 0.00 | 0.00 | 35 | 1016.9 |
| 20260507114504 | 26 | 24 | 9.7 | 20.9 | 0.00 | 0.00 | 0.00 | 35 | 1016.9 |
| 20260507114003 | 26 | 20 | 11.3 | 24.1 | 0.00 | 0.00 | 0.00 | 36 | 1017.0 |
| 20260507113504 | 26 | 25 | 11.3 | 24.1 | 0.00 | 0.00 | 0.00 | 35 | 1017.0 |
| 20260507113005 | 26 | 44 | 11.3 | 20.9 | 0.00 | 0.00 | 0.00 | 36 | 1016.9 |
| 20260507112504 | 26 | 46 | 9.7 | 20.9 | 0.00 | 0.00 | 0.00 | 37 | 1016.9 |
| 20260507112004 | 26 | 40 | 8.0 | 19.3 | 0.00 | 0.00 | 0.00 | 36 | 1017.1 |
| 20260507111506 | 26 | 46 | 8.0 | 20.9 | 0.00 | 0.00 | 0.00 | 37 | 1017.2 |
| 20260507111004 | 26 | 31 | 9.7 | 22.5 | 0.00 | 0.00 | 0.00 | 37 | 1017.2 |
| 20260507110504 | 26 | 15 | 11.3 | 22.5 | 0.00 | 0.00 | 0.00 | 37 | 1017.1 |
| 20260507110005 | 26 | 30 | 9.7 | 22.5 | 0.00 | 0.00 | 0.00 | 35 | 1016.9 |
| 20260507105004 | 25 | 53 | 11.3 | 20.9 | 0.00 | 0.00 | 0.00 | 37 | 1017.0 |
| 20260507104504 | 25 | 54 | 11.3 | 20.9 | 0.00 | 0.00 | 0.00 | 36 | 1017.1 |
| 20260507104004 | 25 | 46 | 11.3 | 20.9 | 0.00 | 0.00 | 0.00 | 37 | 1017.2 |
| 20260507103504 | 25 | 48 | 11.3 | 20.9 | 0.00 | 0.00 | 0.00 | 35 | 1017.0 |
| 20260507103005 | 26 | 50 | 11.3 | 19.3 | 0.00 | 0.00 | 0.00 | 36 | 1016.9 |
| 20260507102504 | 25 | 45 | 11.3 | 20.9 | 0.00 | 0.00 | 0.00 | 40 | 1016.9 |
| 20260507102006 | 25 | 42 | 11.3 | 20.9 | 0.00 | 0.00 | 0.00 | 38 | 1017.0 |
| 20260507101507 | 25 | 39 | 9.7 | 19.3 | 0.00 | 0.00 | 0.00 | 40 | 1017.0 |
| 20260507100005 | 25 | 47 | 8.0 | 16.1 | 0.00 | 0.00 | 0.00 | 43 | 1017.0 |
| 20260507095504 | 25 | 31 | 8.0 | 16.1 | 0.00 | 0.00 | 0.00 | 41 | 1016.9 |
| 20260507095004 | 25 | 30 | 8.0 | 14.5 | 0.00 | 0.00 | 0.00 | 41 | 1017.1 |
| 20260507094504 | 25 | 43 | 8.0 | 14.5 | 0.00 | 0.00 | 0.00 | 39 | 1017.0 |
| 20260507094003 | 25 | 56 | 8.0 | 14.5 | 0.00 | 0.00 | 0.00 | 40 | 1016.8 |
| 20260507093504 | 25 | 66 | 8.0 | 14.5 | 0.00 | 0.00 | 0.00 | 41 | 1016.9 |
| 20260507093005 | 25 | 60 | 8.0 | 12.9 | 0.00 | 0.00 | 0.00 | 42 | 1016.9 |
| 20260507092503 | 25 | 43 | 6.4 | 17.7 | 0.00 | 0.00 | 0.00 | 43 | 1017.2 |
| 20260507092003 | 25 | 15 | 6.4 | 17.7 | 0.00 | 0.00 | 0.00 | 44 | 1016.8 |
| 20260507091504 | 24 | 12 | 4.8 | 12.9 | 0.00 | 0.00 | 0.00 | 43 | 1017.3 |
| 20260507091004 | 23 | 11 | 6.4 | 14.5 | 0.00 | 0.00 | 0.00 | 44 | 1017.1 |
| 20260507090504 | 23 | 4 | 6.4 | 14.5 | 0.00 | 0.00 | 0.00 | 45 | 1017.1 |
| 20260507090006 | 23 | 9 | 6.4 | 14.5 | 0.00 | 0.00 | 0.00 | 46 | 1017.1 |
| 20260507085504 | 23 | 21 | 6.4 | 12.9 | 0.00 | 0.00 | 0.00 | 45 | 1017.0 |
| 20260507085003 | 23 | 31 | 6.4 | 12.9 | 0.00 | 0.00 | 0.00 | 42 | 1017.0 |
| 20260507084004 | 23 | 32 | 4.8 | 12.9 | 0.00 | 0.00 | 0.00 | 43 | 1017.3 |
| 20260507083005 | 23 | 36 | 8.0 | 17.7 | 0.00 | 0.00 | 0.00 | 42 | 1017.3 |
| 20260507082505 | 23 | 63 | 6.4 | 16.1 | 0.00 | 0.00 | 0.00 | 39 | 1017.2 |
| 20260507082004 | 23 | 59 | 6.4 | 16.1 | 0.00 | 0.00 | 0.00 | 37 | 1016.9 |
| 20260507081004 | 23 | 64 | 6.4 | 11.3 | 0.00 | 0.00 | 0.00 | 36 | 1017.2 |
| 20260507080504 | 23 | 31 | 4.8 | 11.3 | 0.00 | 0.00 | 0.00 | 35 | 1017.1 |
| 20260507080005 | 23 | 32 | 4.8 | 11.3 | 0.00 | 0.00 | 0.00 | 36 | 1017.2 |
| 20260507075503 | 23 | 42 | 6.4 | 14.5 | 0.00 | 0.00 | 0.00 | 36 | 1017.1 |
| 20260507074504 | 23 | 24 | 6.4 | 14.5 | 0.00 | 0.00 | 0.00 | 40 | 1017.1 |
| 20260507074004 | 23 | 25 | 4.8 | 12.9 | 0.00 | 0.00 | 0.00 | 42 | 1017.1 |
| 20260507073504 | 23 | 32 | 6.4 | 12.9 | 0.00 | 0.00 | 0.00 | 43 | 1016.9 |
| 20260507073004 | 23 | 22 | 6.4 | 12.9 | 0.00 | 0.00 | 0.00 | 44 | 1016.8 |
| 20260507072503 | 23 | 47 | 4.8 | 11.3 | 0.00 | 0.00 | 0.00 | 44 | 1016.7 |
| 20260507072004 | 23 | 86 | 4.8 | 11.3 | 0.00 | 0.00 | 0.00 | 42 | 1017.0 |
| 20260507071505 | 23 | 92 | 4.8 | 11.3 | 0.00 | 0.00 | 0.00 | 42 | 1016.8 |
| 20260507071004 | 23 | 93 | 4.8 | 9.7 | 0.00 | 0.00 | 0.00 | 41 | 1017.0 |
| 20260507070503 | 23 | 111 | 3.2 | 9.7 | 0.00 | 0.00 | 0.00 | 40 | 1016.8 |
| 20260507070009 | 23 | 126 | 3.2 | 9.7 | 0.00 | 0.00 | 0.00 | 41 | 1016.8 |
| 20260507065503 | 23 | 118 | 3.2 | 8.0 | 0.00 | 0.00 | 0.00 | 39 | 1017.1 |
| 20260507065004 | 22 | 96 | 3.2 | 9.7 | 0.00 | 0.00 | 0.00 | 38 | 1017.2 |
| 20260507064004 | 22 | 195 | 1.6 | 4.8 | 0.00 | 0.00 | 0.00 | 40 | 1017.1 |
| 20260507063504 | 22 | 209 | 1.6 | 6.4 | 0.00 | 0.00 | 0.00 | 42 | 1017.1 |
| 20260507062504 | 21 | 213 | 1.6 | 4.8 | 0.00 | 0.00 | 0.00 | 44 | 1017.1 |
| 20260507062004 | 20 | 190 | 1.6 | 4.8 | 0.00 | 0.00 | 0.00 | 44 | 1017.3 |
| 20260507061504 | 20 | 181 | 0.0 | 4.8 | 0.00 | 0.00 | 0.00 | 46 | 1017.1 |
| 20260507061004 | 20 | 191 | 0.0 | 4.8 | 0.00 | 0.00 | 0.00 | 48 | 1017.1 |
| 20260507060504 | 20 | 190 | 1.6 | 4.8 | 0.00 | 0.00 | 0.00 | 48 | 1017.1 |
| 20260507060004 | 19 | 181 | 0.0 | 6.4 | 0.00 | 0.00 | 0.00 | 49 | 1017.1 |
| 20260507055503 | 19 | 181 | 1.6 | 6.4 | 0.00 | 0.00 | 0.00 | 50 | 1017.2 |
| 20260507055003 | 19 | 189 | 1.6 | 6.4 | 0.00 | 0.00 | 0.00 | 52 | 1017.1 |
| 20260507054504 | 18 | 217 | 1.6 | 6.4 | 0.00 | 0.00 | 0.00 | 53 | 1017.0 |
| 20260507054004 | 18 | 289 | 1.6 | 6.4 | 0.00 | 0.00 | 0.00 | 55 | 1017.0 |